Wind_Speed
4 1 2 2 3 4 1 2 3 4 3 4 5 7 7 3 1 3 3 10 24 26 21 17 16 15 14 16 15 14 13 11 11 12 13 13 12 12 11 11 11 12 12 12 12 12 12 12 12
2 2 2 2 4 3 3 5 1 2 4 4 8 6 4 3 4 9 12 16 28 26 22 19 17 16 15 17 15 12 11 10 11 13 12 12 12 12 10 10 10 11 12 12 12 12 13 13 14
2 2 3 4 3 3 3 3 4 3 4 3 4 4 4 5 8 9 14 26 29 26 22 19 17 17 18 17 14 11 10 10 12 12 11 12 11 11 10 10 10 11 12 12 12 12 14 15 15
1 4 4 3 4 5 6 11 4 2 2 4 3 6 5 3 13 13 25 29 27 25 23 20 19 18 18 15 13 11 10 11 11 10 10 10 11 11 11 11 12 13 14 14 16 16 17 15 16
3 3 4 4 5 3 5 16 14 2 2 4 3 4 5 5 11 28 31 29 28 25 21 19 18 18 17 14 12 10 10 11 10 10 10 11 11 12 11 12 14 17 18 18 18 17 14 15 19
4 3 4 2 5 4 3 8 10 4 1 2 3 5 2 16 30 29 28 29 27 27 23 20 20 20 16 13 11 9 9 10 10 10 11 13 13 12 12 13 15 17 18 17 15 16 14 20 21
5 4 3 2 5 3 4 1 2 4 4 3 2 5 4 12 18 28 25 26 26 25 23 21 21 19 17 14 12 10 9 9 9 10 12 13 14 14 14 16 16 16 18 20 18 14 18 22 21
5 4 1 3 3 4 6 2 5 5 2 5 1 5 5 12 20 22 22 23 25 25 22 21 20 18 16 13 12 11 11 9 9 10 12 11 13 14 14 13 14 15 16 19 19 15 17 20 17
4 4 2 3 5 3 1 3 1 2 2 3 5 5 7 23 24 22 22 19 22 21 22 22 21 18 16 12 10 11 11 10 10 9 8 8 10 10 10 10 10 11 13 17 18 14 18 18 17
4 3 6 5 5 5 7 4 6 4 6 3 3 10 23 26 23 21 17 17 23 25 25 23 23 19 17 13 11 12 12 12 10 8 6 5 4 6 5 6 5 6 9 13 17 19 21 19 19
3 4 3 5 3 6 11 4 3 7 1 7 11 15 16 24 23 20 21 25 29 25 26 25 23 20 19 16 13 13 11 10 10 7 5 4 2 2 0 2 1 2 6 9 15 16 16 17 18
1 8 4 7 1 3 9 7 6 5 2 8 14 19 13 16 16 26 24 21 24 26 27 25 23 21 20 16 15 13 12 11 8 4 4 5 3 2 1 1 3 3 7 8 10 15 14 15 16
4 4 7 3 4 5 8 0 1 3 6 8 12 13 13 11 19 22 24 21 19 24 28 27 26 23 21 18 16 16 15 12 8 6 4 5 5 2 1 2 0 3 8 6 6 10 15 15 15
3 5 7 2 5 0 9 6 4 0 9 10 9 10 10 12 10 7 17 22 27 27 29 27 29 27 23 20 20 18 16 12 10 9 6 4 4 3 2 3 3 5 7 5 8 5 13 15 15
3 5 8 5 3 5 5 8 5 8 6 10 10 4 6 4 4 13 4 22 28 31 32 30 29 28 25 21 20 19 17 13 13 11 7 6 6 5 3 1 4 5 4 4 5 6 11 16 16
4 5 4 5 6 5 9 5 1 7 13 10 9 3 6 8 2 12 6 11 28 32 34 31 30 29 24 22 23 20 17 18 17 11 7 5 4 3 3 4 6 3 3 2 2 7 11 11 14
7 1 2 9 2 4 6 5 6 7 7 8 4 4 8 7 9 1 0 5 23 31 32 31 32 30 26 24 25 21 19 20 17 11 7 4 3 3 2 5 4 3 3 2 5 4 5 14 12
2 1 3 5 5 12 12 4 5 4 7 8 4 7 9 6 3 1 7 3 18 27 31 31 29 29 26 25 24 21 20 18 14 12 8 7 5 5 5 5 4 5 5 7 4 4 7 8 7
1 5 7 4 3 7 5 7 4 3 5 5 7 9 8 9 6 2 5 8 17 27 29 33 33 30 29 27 24 21 19 17 14 10 7 7 9 9 7 6 6 5 6 6 8 7 7 7 6
9 1 3 3 5 4 6 5 4 2 3 5 6 8 11 8 8 3 6 11 23 31 28 30 30 30 27 26 26 19 19 13 9 7 7 8 11 11 9 8 5 5 4 5 5 6 6 6 8
3 6 4 7 3 5 5 2 7 3 4 4 4 4 3 9 8 4 8 16 22 26 27 29 27 26 24 21 19 11 15 9 12 12 10 9 9 10 11 9 7 7 6 8 8 5 7 8 6
3 1 7 9 5 4 2 4 4 5 3 6 4 6 5 4 4 4 7 15 25 27 25 25 24 25 23 21 20 17 14 12 12 13 11 11 11 13 13 11 10 7 8 8 9 8 7 9 8
5 4 4 4 4 4 1 3 5 0 6 6 6 7 6 7 5 6 10 17 24 27 25 22 22 24 25 23 20 15 14 12 9 11 11 11 12 14 17 15 13 11 9 7 8 9 9 7 7
4 4 7 4 4 3 5 4 5 5 7 7 6 7 7 6 6 6 10 16 20 23 24 22 21 24 26 22 19 16 14 12 11 11 12 12 12 15 19 19 16 13 12 11 11 9 9 9 7
8 6 4 4 5 4 2 3 8 3 6 8 15 13 10 8 7 5 6 13 18 25 27 28 22 25 25 23 20 19 15 13 13 12 12 12 12 17 20 20 19 17 14 12 12 12 12 11 10
3 6 5 4 2 4 3 3 5 3 7 6 5 9 12 10 8 9 10 14 20 26 27 25 22 25 26 26 24 21 17 15 12 12 13 13 13 10 15 18 19 18 15 14 13 13 12 12 11
2 1 2 7 3 3 3 6 5 3 6 6 6 8 10 10 9 13 16 21 22 25 27 28 29 27 27 27 24 22 19 17 14 12 11 12 11 10 10 13 16 18 18 16 15 15 14 12 11
4 5 3 3 4 2 4 4 4 4 8 8 5 10 10 8 9 8 13 22 25 26 26 26 26 25 24 23 21 20 19 18 15 12 11 11 10 11 12 13 15 16 19 18 17 16 15 14 14
3 2 6 5 4 4 1 5 6 8 9 8 10 8 9 10 9 9 13 23 27 25 24 25 20 19 19 19 21 22 21 19 16 13 11 10 10 13 15 17 17 20 20 20 20 19 17 17 16
3 4 4 5 2 1 4 5 4 5 7 7 11 12 7 9 9 10 10 16 21 24 23 24 24 24 22 19 20 22 20 17 17 16 13 12 12 15 17 17 18 19 22 22 23 23 22 20 18
Wind_Direction
295 125 120 106 47 57 11 205 258 153 24 348 65 95 112 37 94 189 138 167 159 156 156 153 146 139 137 133 125 132 124 122 114 109 107 102 94 88 87 79 75 73 69 67 65 63 62 56 56
295 154 80 89 82 60 319 310 98 271 137 160 100 123 72 77 84 132 123 161 161 154 156 151 145 144 143 131 139 135 129 125 117 114 112 106 103 97 90 83 81 76 72 68 66 65 63 62 78
173 181 86 96 106 135 130 224 254 288 332 297 101 34 105 115 115 139 156 159 158 156 155 149 151 149 145 141 148 141 137 129 123 118 114 107 97 88 85 85 80 74 67 62 61 67 68 76 82
139 19 34 85 254 240 158 181 217 233 303 357 44 72 58 162 145 157 155 158 157 156 155 155 156 153 148 153 149 147 142 131 121 111 104 93 80 74 73 75 73 72 66 65 70 72 77 82 93
56 51 44 4 280 213 250 179 169 233 322 7 327 80 84 64 143 149 156 162 160 157 158 158 157 155 152 160 157 152 138 127 113 104 96 82 75 69 70 71 82 80 77 75 70 66 73 93 109
44 99 55 272 269 330 22 142 150 204 122 276 86 94 59 138 141 155 161 165 165 160 163 163 163 160 160 162 157 149 138 124 113 105 93 82 71 70 72 78 86 77 69 63 64 65 80 112 118
118 92 206 246 268 297 170 183 262 163 151 219 136 81 117 158 157 155 163 164 166 165 167 170 167 163 166 164 161 153 142 128 120 111 105 86 78 79 78 87 87 72 65 62 62 86 96 115 113
111 90 322 244 333 339 173 91 86 33 314 344 5 136 182 175 149 147 157 165 169 169 173 173 168 163 176 171 164 154 149 141 141 130 114 100 83 83 84 85 79 71 61 52 59 101 116 118 113
126 59 298 244 154 240 108 99 293 156 148 324 38 43 136 140 139 142 149 166 172 177 179 178 174 173 178 176 171 164 158 159 154 142 127 114 98 93 91 87 72 66 54 50 62 104 128 123 106
94 111 236 212 152 174 170 138 186 141 163 27 76 84 120 137 152 150 160 171 178 185 185 185 182 179 182 185 183 178 172 163 156 159 146 136 123 96 93 91 69 68 62 66 75 106 130 120 114
171 195 225 265 237 193 149 180 240 141 277 213 170 133 133 155 167 170 180 186 186 190 187 189 188 185 186 190 189 189 185 173 171 167 172 191 183 160 73 85 25 68 99 98 88 112 114 119 116
270 251 181 272 31 123 163 138 187 129 219 138 152 145 151 169 186 180 180 183 191 191 192 193 193 193 194 196 195 190 186 185 193 204 211 214 217 206 232 39 15 143 142 116 116 108 118 119 118
179 268 198 268 277 147 108 214 111 212 109 122 141 160 164 172 198 186 179 183 182 193 196 196 194 196 199 202 200 196 190 191 195 212 203 221 203 179 196 238 197 150 166 141 141 121 126 132 128
261 272 284 163 288 34 124 55 98 78 148 129 138 177 182 188 191 121 168 183 190 193 200 196 196 195 196 203 204 197 197 193 203 205 194 205 206 230 222 161 188 123 146 180 149 147 137 140 140
294 10 341 357 9 34 124 28 340 158 141 141 154 172 276 317 286 107 125 192 196 195 200 198 196 196 201 206 206 202 206 201 207 190 193 216 217 235 230 196 155 157 142 160 172 160 159 159 158
38 49 34 297 33 337 93 289 302 161 146 172 175 183 308 278 91 17 99 207 194 196 197 198 200 200 203 209 212 203 207 203 194 188 208 209 209 249 232 145 149 147 145 118 224 155 184 183 176
15 140 281 322 17 138 63 180 201 136 166 166 184 264 261 313 69 12 69 210 196 193 194 194 198 200 201 212 212 202 184 186 188 193 185 195 217 234 182 159 160 177 189 195 267 180 171 197 193
178 27 296 249 356 83 84 102 68 142 174 182 258 272 276 308 100 121 153 188 198 194 190 189 187 186 185 180 174 173 178 183 186 197 217 221 220 227 209 176 156 158 167 242 221 187 171 166 180
174 167 217 267 146 91 103 116 89 58 125 188 230 250 273 265 254 246 189 179 188 183 175 178 173 171 176 172 171 175 182 189 197 205 218 229 222 225 218 204 182 213 185 176 189 202 190 182 187
261 356 137 25 60 87 142 124 94 128 231 223 239 246 235 247 277 301 148 191 190 185 178 177 180 180 187 182 187 184 194 197 203 206 208 213 222 226 221 224 237 206 204 218 219 229 229 199 196
303 174 191 160 80 83 111 102 150 210 240 203 213 251 254 222 260 206 164 181 193 188 183 186 189 191 197 196 195 193 192 196 211 217 212 212 228 224 212 221 245 218 222 228 223 229 234 215 196
93 201 129 131 106 200 95 242 284 151 148 165 173 162 178 220 258 242 170 173 192 190 193 198 202 210 211 212 212 207 214 216 230 228 223 226 230 239 221 218 233 231 234 250 229 224 232 221 211
196 164 115 135 128 100 213 116 258 214 154 192 184 155 184 184 215 205 199 192 199 196 192 197 208 216 218 216 220 229 225 237 243 220 223 224 240 229 224 227 236 239 234 225 216 228 226 224 222
93 78 45 63 90 30 290 126 283 188 180 163 182 168 176 180 191 224 197 192 193 195 198 201 206 218 218 218 219 230 238 242 229 231 229 230 243 229 222 225 231 239 233 228 229 229 229 223 218
72 53 5 11 14 215 312 75 241 218 199 187 172 170 182 185 194 189 184 179 183 193 198 200 212 214 214 216 217 222 230 232 237 236 237 240 251 237 226 229 232 234 232 232 228 228 226 219 219
56 140 145 191 184 267 281 234 265 316 172 220 194 157 171 184 191 189 194 187 182 193 199 206 210 214 209 210 214 219 225 234 241 247 251 254 257 269 247 241 241 236 234 231 232 231 223 223 222
193 62 178 102 23 65 281 301 323 19 186 218 179 164 186 187 196 197 185 183 185 194 200 202 208 210 210 212 216 215 220 229 242 250 248 257 262 261 251 245 243 240 234 232 232 232 230 225 229
111 152 60 18 134 211 301 289 237 258 245 259 230 203 198 193 192 218 183 187 194 201 205 210 214 215 215 216 219 225 229 228 234 242 249 257 262 260 253 246 245 238 236 231 233 230 232 232 235
14 44 53 110 113 151 159 274 218 231 236 240 245 229 206 204 202 207 214 191 200 207 212 215 216 223 230 233 235 233 235 235 235 236 249 266 265 262 258 257 250 244 237 233 233 233 234 234 239
127 88 109 111 229 89 141 267 252 242 215 203 227 224 225 204 207 212 224 189 204 213 216 219 221 227 231 231 236 241 241 241 241 241 242 262 273 276 265 257 254 251 243 238 237 238 235 239 241
Height
774 775 776 777 803 808 813 796 779 778 777 764 760 770 780 781 786 806 787 790 791 796 801 804 806 808 811 812 813 813 812 813 813 812 812 811 812 811 811 810 810 810 809 810 810 809 807 808 807
773 774 775 784 815 828 818 794 789 780 768 763 762 767 774 789 782 786 789 791 793 797 801 805 807 810 812 813 815 815 815 815 815 814 813 813 812 811 812 811 811 811 811 811 810 809 808 807 807
772 773 781 800 821 823 816 794 790 777 770 769 766 764 772 785 785 787 788 789 794 798 801 806 809 811 813 814 815 816 817 817 816 815 816 815 814 813 813 813 813 813 813 812 811 809 809 808 808
773 775 785 806 809 799 786 783 783 781 771 768 767 779 775 778 780 784 790 793 797 800 804 806 809 812 814 815 817 818 818 819 819 819 819 819 818 816 816 815 814 814 814 814 812 812 810 810 810
774 784 810 814 807 788 776 772 777 782 779 774 771 782 782 782 783 785 788 793 797 802 805 808 811 813 815 817 818 820 821 821 821 822 822 821 820 820 819 818 817 817 816 816 815 814 814 812 813
786 792 820 824 804 780 778 771 775 779 778 773 773 780 789 784 783 788 789 793 796 799 805 808 809 812 815 818 820 822 823 823 823 824 824 824 823 823 822 821 821 820 820 819 818 816 815 814 816
788 803 812 809 804 783 777 770 775 777 779 775 769 786 788 788 789 789 793 797 800 802 805 809 810 813 815 816 819 821 823 825 825 826 826 826 825 825 825 824 823 823 823 823 821 820 819 817 818
783 797 803 803 803 792 774 773 773 780 782 770 769 788 796 784 790 792 796 800 801 803 808 811 814 814 817 818 819 820 822 825 826 826 826 828 828 827 828 827 827 825 826 825 823 821 821 821 821
774 807 816 797 794 785 776 782 776 774 779 777 780 781 777 788 791 793 798 803 804 807 809 811 814 816 817 820 822 822 822 823 825 827 828 829 829 829 830 830 830 828 829 827 826 824 824 824 824
787 810 795 777 773 777 777 781 779 777 781 789 783 780 780 787 791 794 800 800 802 804 808 812 814 816 820 822 823 824 823 823 826 829 829 830 830 830 830 831 832 831 832 830 829 828 827 827 826
781 796 777 767 764 764 774 784 776 777 794 781 782 777 782 783 784 789 792 796 797 805 808 811 814 817 819 821 823 826 827 827 828 828 828 830 831 831 831 832 832 832 833 833 833 832 831 830 829
783 772 769 761 755 766 779 773 776 780 780 772 772 768 773 779 779 777 787 796 801 802 808 811 815 818 820 822 823 825 826 829 831 831 830 830 831 831 832 832 832 832 835 835 836 835 834 833 832
781 770 767 756 759 764 771 774 779 781 778 776 774 770 772 775 775 778 785 792 800 803 805 809 813 816 819 821 822 824 825 828 829 831 831 831 832 831 832 832 832 833 835 836 837 837 835 835 834
766 767 763 759 757 759 778 783 775 784 778 778 777 775 775 772 775 785 789 792 795 800 805 806 810 813 816 818 820 822 826 827 829 832 831 831 832 832 831 831 833 834 835 836 837 838 837 837 836
764 771 768 759 759 766 763 787 793 782 781 782 781 778 777 781 782 782 788 791 795 797 802 804 807 811 814 817 820 822 825 827 830 830 831 830 831 832 831 832 833 834 835 835 837 837 837 839 837
778 783 796 769 766 766 771 812 789 784 783 787 782 782 782 778 786 790 788 790 793 795 798 805 807 808 811 815 818 820 821 826 828 830 830 829 829 830 831 831 832 834 835 836 837 837 838 838 838
798 805 796 787 767 768 780 804 791 790 790 789 790 790 785 784 792 789 786 789 793 791 798 801 804 807 810 814 818 819 821 825 827 827 829 829 829 829 830 831 832 833 834 834 836 837 837 837 838
802 799 794 797 778 778 796 804 797 795 794 792 793 791 785 790 792 791 785 789 793 794 795 799 802 805 808 814 818 821 823 825 825 825 825 827 827 828 830 830 831 831 832 834 835 835 836 836 836
789 802 804 785 774 788 800 808 805 799 797 796 795 794 792 788 783 785 788 789 793 799 799 801 802 806 808 812 816 821 823 822 823 822 824 825 827 828 829 829 830 831 831 832 833 833 835 835 835
787 789 791 784 776 786 805 813 806 802 801 795 795 792 790 789 785 786 784 789 791 797 801 803 804 806 809 811 813 818 820 821 823 822 822 824 826 827 828 828 829 830 832 832 833 832 833 833 833
779 790 785 790 784 787 798 809 816 812 803 797 794 792 788 786 788 788 786 789 790 797 801 803 806 808 809 812 816 817 822 823 821 821 822 823 825 826 826 827 828 829 830 830 830 830 831 831 831
784 765 774 786 802 819 796 839 809 810 805 801 800 796 790 790 792 789 787 789 789 795 799 802 805 808 810 811 815 817 818 819 819 819 820 821 823 824 825 826 827 828 828 828 828 828 829 830 830
774 764 769 780 800 806 804 827 813 807 808 803 798 795 791 788 787 788 786 786 790 794 797 803 806 809 811 812 814 816 818 819 817 817 818 819 820 821 823 824 824 825 825 826 827 827 828 828 828
758 771 787 799 809 829 810 815 815 813 798 798 793 790 790 790 789 788 788 789 791 794 799 803 806 807 810 812 814 816 817 817 817 817 818 818 818 819 819 820 821 822 823 824 825 825 826 826 827
772 796 832 829 839 839 810 819 809 787 786 782 781 785 788 788 788 789 788 789 792 795 799 802 804 806 809 810 812 814 815 815 816 815 815 817 818 817 817 818 819 820 821 822 823 823 823 824 824
778 791 830 836 844 834 811 819 801 778 777 776 775 780 784 788 789 790 791 792 794 797 798 802 805 804 803 804 807 809 810 812 812 812 813 814 815 815 817 818 818 819 820 820 821 821 821 822 822
780 798 789 824 830 835 827 804 782 776 777 775 778 782 785 787 790 789 789 789 790 793 796 797 797 799 801 803 805 804 805 807 808 810 810 811 811 813 814 815 815 817 817 818 819 819 820 820 821
769 778 806 823 836 837 834 818 815 789 782 775 776 778 778 780 785 787 782 783 787 788 790 793 796 799 801 802 803 804 804 803 805 806 807 808 809 810 811 812 812 813 814 815 815 816 817 818 819
786 794 810 818 831 846 849 831 792 787 779 778 773 772 773 775 777 779 779 778 781 785 789 792 799 802 804 804 804 803 802 804 803 802 803 804 806 807 807 807 808 809 810 811 812 812 814 814 815
773 787 803 830 822 836 840 830 773 777 776 774 770 766 767 768 770 772 776 776 780 784 788 790 795 797 799 800 800 802 804 802 803 801 801 803 803 803 803 803 804 805 806 807 808 808 809 810 810